Location: Babice
(50.3480°N, 22.9363°E)
Time: 12:52:27
(UTC+00:00)

SL-8 R/B - Pass Details

Date: 14 July 2020
Orbit: 656 x 668 km, 48.4° (Epoch: 07 August)

Event Time Altitude Azimuth Distance (km) Brightness Sun altitude
Exits shadow 01:46:36 - 262° (W) 2,838 6.5 -6.5°
Reaches altitude 10° 01:48:33 10° 260° (W) 2,083 5.8 -6.2°
Maximum altitude 01:53:20 71° 178° (S) 700 3.7 -5.7°
Drops below altitude 10° 01:58:07 10° 94° (E) 2,077 6.9 -5.1°
Sets 02:00:28 0° 92° (E) 2,987 7.8 -4.9°
